Lexington Weather

Lexington, Massachusetts, USA

46°F
10/22/2019 1:58am 
  • Lexington Conditions: Partly cloudy
  • Temperature: 46.0°F / 7.8°CWarmer 0.5°F than last hour.
  • Dew Point: 44.4°FIncreased 1.4°Fsince last hour.
  • Relative Humidity: 94%Increased 3.0% since last hour.
  • Wind: Calm, 10-min avg: Calm, gust: None
  • Barometer: 30.12 in Steady
  • Visibility: 9 miles
  • Rain Today: 0.00 in
  •   

Regional Weather Roundup
for Boston, MA

        
000
ASUS41 KBOX 210010
RWRBOX

REGIONAL WEATHER ROUNDUP
NATIONAL WEATHER SERVICE BOSTON/NORTON MA
800 PM EDT SUN OCT 20 2019

NOTE:  "FAIR" INDICATES FEW OR NO CLOUDS BELOW 12,000 FEET WITH NO 
SIGNIFICANT WEATHER AND/OR OBSTRUCTIONS TO VISIBILITY.

MAZALL-210100-
EASTERN MASSACHUSETTS
  
CITY           SKY/WX    TMP DP  RH WIND       PRES   REMARKS
BOSTON         CLOUDY    57  50  77 NE5       30.05S                  
6HR MIN TEMP:  57; 6HR MAX TEMP:  59;                                

BEVERLY        FAIR      52  48  86 E3        30.05S                  
LAWRENCE       FAIR      51  46  83 N3        30.07S                  
BEDFORD        MOCLDY    56  45  66 CALM      30.04S                  
BLUE HILL      NOT AVBL                                               
NORWOOD        CLOUDY    54  46  74 CALM      30.05S                  
MARSHFIELD     FAIR      55  50  82 SE6       30.05R                  
PLYMOUTH       CLOUDY    53  47  79 S5        30.06R                  
TAUNTON        CLOUDY    54  48  80 SE5       30.05R                  
NEW BEDFORD    CLOUDY    55  47  74 E3        30.04S                  
$$

MAZALL-210100-
CAPE COD AND THE ISLANDS
  
CITY           SKY/WX    TMP DP  RH WIND       PRES   REMARKS
FALMOUTH       CLOUDY    54  48  82 SE5       30.05S                  
HYANNIS        FAIR      55  47  74 E5        30.04S                  
CHATHAM        NOT AVBL                                               
PROVINCETOWN   FAIR      54  47  77 SE7         N/A                   
NANTUCKET      CLOUDY    55  50  83 E7        30.05F                  
MARTHAS VNYRD  MOCLDY    54  50  86 E5        30.04F                  
$$
 
MAZALL-210100-
CENTRAL AND WESTERN MASSACHUSETTS
  
CITY           SKY/WX    TMP DP  RH WIND       PRES   REMARKS
WORCESTER      LGT RAIN  49  47  93 NW3       30.06R                  
6HR MIN TEMP:  49; 6HR MAX TEMP:  56; 6HR PCP:  0.12;                

FITCHBURG      LGT RAIN  50  48  93 NW5       30.07R FOG              
ORANGE         LGT RAIN  51  49  92 CALM      30.06R                  
SPRINGFIELD    LGT RAIN  51  51  99 CALM      30.04S                  
WESTFIELD      LGT RAIN  50  48  93 CALM      30.04S                  
NORTH ADAMS    CLOUDY    50  46  86 E6        30.03S                  
PITTSFIELD     CLOUDY    50  47  89 NE5       30.02S                  
$$
 
RIZALL-210100-
RHODE ISLAND
  
CITY           SKY/WX    TMP DP  RH WIND       PRES   REMARKS
PROVIDENCE     LGT RAIN  55  49  80 SE3       30.05R                  
6HR MIN TEMP:  55; 6HR MAX TEMP:  60; 6HR PCP: TRACE;                

NEWPORT        CLOUDY    56  48  74 CALM      30.03F                  
BLOCK ISLAND   LGT RAIN  56  51  84 E8        30.03F                  
SMITHFIELD     CLOUDY   N/A N/A N/A CALM      30.05R                  
WESTERLY       LGT RAIN  56  53  90 N5        30.04S                  
$$
 
CTZALL-210100-
CONNECTICUT
  
CITY           SKY/WX    TMP DP  RH WIND       PRES   REMARKS
BRADLEY INTL   LGT RAIN  53  49  86 N6        30.04S                  
6HR MIN TEMP:  53; 6HR MAX TEMP:  58; 6HR PCP:  0.05;                

HARTFORD       LGT RAIN  53  50  89 N3        30.04R                  
BRIDGEPORT     RAIN      54  50  86 NE13      30.01S                  
DANBURY        LGT RAIN  52  50  93 E7        30.02F                  
GROTON         RAIN      54  52  93 NE6       30.03R FOG              
NEW HAVEN      LGT RAIN  55  51  86 NE6       30.03R                  
CHESTER        LGT RAIN  52  52 100 CALM      30.04R                  
MERIDEN        LGT RAIN  52  50  93 CALM      30.03S                  
WILLIMANTIC    LGT RAIN  52  51  97 CALM      30.06R                  
OXFORD         LGT RAIN  50  49  96 NE5       30.03S FOG              
$$

MEZ002-015-021-024-NHZ003-005-008-011-012-014-VTZ005-008-210100-
NORTHERN NEW ENGLAND
  
CITY           SKY/WX    TMP DP  RH WIND       PRES   REMARKS
PORTLAND ME    FAIR      50  45  83 E3        30.07F                  
6HR MIN TEMP:  50; 6HR MAX TEMP:  54;                                

BANGOR ME      CLOUDY    48  41  76 CALM      30.09R                  
CONCORD NH     LGT RAIN  50  47  89 CALM      30.07R                  
MANCHESTER NH  LGT RAIN  54  47  77 CALM      30.05R                  
NASHUA NH      LGT RAIN  51  51 100 NW5       30.07R                  
PORTSMOUTH NH  CLOUDY    51  47  86 CALM      30.05S                  
JAFFREY NH     LGT RAIN  49  46  90 CALM      30.06R                  
KEENE NH       LGT RAIN  49  48  97 CALM      30.06R                  
BURLINGTON VT  FAIR      51  43  74 S10       30.00S                  
MT. WASHINGTON LGT RAIN  39  36  87 SW17        N/A  WCI  30          
$$

NYZ052-076-210100-
EASTERN NEW YORK
  
CITY           SKY/WX    TMP DP  RH WIND       PRES   REMARKS
ALBANY         MOCLDY    48  44  86 E3        30.04S FOG              
6HR MIN TEMP:  48; 6HR MAX TEMP:  54; 6HR PCP:  0.04;                

NEW YORK CITY  LGT RAIN  55  49  80 E12       29.99S                  
6HR MIN TEMP:  54; 6HR MAX TEMP:  59; 6HR PCP:  0.34;                

$$
 
ANZALL-210100-
MARINE OBSERVATIONS
  
STATION/POSITION TIME  TEMP    WIND        PRES    VSBY  WAVE
                       AIR SEA DIR/SP/G                  HT/PER
                 (UTC) (F)     (DEG/KT/KT) (MB)    (MI)  (FT/S)
BOSTON BUOY      2350   57 57  120/  6/  8 1016.9R         1/12
BUZZARDS BAY     2300   57     110/ 10/ 11 1017.7R
NANTUCKET SOUND  2340      56                N/A           0
MASS BAY-STELLWA 2304   56 56  120/  8/ 10 1016.9F  1 7/8  1
ISLE OF SHOALS   2300   54     130/  8/  9 1017.3F
S OF BLOCK IS    0000      60                N/A           2/ 3
$$

......................KEY.........................
  SKY/WX - SKY CONDITION/PRESENT WEATHER
  TMP    - TEMPERATURE IN FAHRENHEIT
  DWPT   - DEWPOINT IN FAHRENHEIT
  RH     - RELATIVE HUMIDITY IN PERCENT
  WIND   - DIRECTION AND SPEED IN MPH
  PRES   - MEAN SEA LEVEL PRESSURE IN INCHES OF HG
  WCI    - WIND CHILL INDEX
  VSB    - VISIBILITY IN MILES
  HX     - HEAT INDEX
  TC     - TEMPERATURE IN CELSIUS
  VRB    - VARIABLE WIND DIRECTION
  N/A    - NOT AVAILABLE
  
      

Other recent Regional Weather Roundups

Tue Oct 22, 1:10am

Tue Oct 22, 1:00am

Tue Oct 22, 12:10am

Tue Oct 22, 12:00am

Mon Oct 21, 11:10pm

Mon Oct 21, 11:00pm

Mon Oct 21, 10:10pm

Mon Oct 21, 10:01pm

Mon Oct 21, 9:10pm

Mon Oct 21, 9:00pm

Mon Oct 21, 8:10pm

Mon Oct 21, 8:00pm

Mon Oct 21, 7:10pm

Mon Oct 21, 7:01pm

Mon Oct 21, 6:10pm

Mon Oct 21, 6:01pm

Mon Oct 21, 5:10pm

Mon Oct 21, 5:01pm

Mon Oct 21, 4:10pm

Mon Oct 21, 4:00pm

Mon Oct 21, 3:10pm

Mon Oct 21, 3:01pm

Mon Oct 21, 2:10pm

Mon Oct 21, 2:00pm

Mon Oct 21, 1:10pm

Mon Oct 21, 1:01pm

Mon Oct 21, 12:10pm

Mon Oct 21, 12:00pm

Mon Oct 21, 11:10am

Mon Oct 21, 11:00am

Mon Oct 21, 10:10am

Mon Oct 21, 10:00am

Mon Oct 21, 9:10am

Mon Oct 21, 9:00am

Mon Oct 21, 7:10am

Mon Oct 21, 7:00am

Mon Oct 21, 6:10am

Mon Oct 21, 6:00am

Mon Oct 21, 5:10am

Mon Oct 21, 5:00am

Mon Oct 21, 4:10am

Mon Oct 21, 4:00am

Mon Oct 21, 3:10am

Mon Oct 21, 3:00am

Mon Oct 21, 2:10am

Mon Oct 21, 2:01am

Mon Oct 21, 1:10am

Mon Oct 21, 1:00am

Mon Oct 21, 12:10am

Mon Oct 21, 12:00am

Sun Oct 20, 11:10pm

Sun Oct 20, 11:00pm

Sun Oct 20, 10:10pm

Sun Oct 20, 10:00pm

Sun Oct 20, 9:10pm

Sun Oct 20, 9:01pm

Sun Oct 20, 8:00pm

Sun Oct 20, 7:10pm

Sun Oct 20, 7:01pm

Sun Oct 20, 6:10pm

Sun Oct 20, 6:00pm

Sun Oct 20, 5:10pm

Sun Oct 20, 5:00pm

Sun Oct 20, 4:10pm

Sun Oct 20, 4:00pm

Sun Oct 20, 3:10pm

Sun Oct 20, 3:00pm

Sun Oct 20, 2:10pm

Sun Oct 20, 2:01pm

Sun Oct 20, 1:10pm

Sun Oct 20, 1:01pm

Sun Oct 20, 12:10pm

Sun Oct 20, 12:00pm

Sun Oct 20, 11:10am

Sun Oct 20, 11:00am

Sun Oct 20, 10:10am

Sun Oct 20, 10:00am

Sun Oct 20, 9:10am

Sun Oct 20, 9:00am

Sun Oct 20, 8:10am

Sun Oct 20, 8:00am

Sun Oct 20, 7:10am

Sun Oct 20, 7:00am

Sun Oct 20, 6:10am

Sun Oct 20, 6:00am

Sun Oct 20, 5:10am

Sun Oct 20, 5:00am

Sun Oct 20, 4:10am

Sun Oct 20, 4:00am

Sun Oct 20, 3:10am

Sun Oct 20, 3:00am

Sun Oct 20, 2:10am

Sun Oct 20, 2:00am

Sun Oct 20, 1:10am

Sun Oct 20, 1:00am

Sun Oct 20, 12:10am

Sun Oct 20, 12:00am

Sat Oct 19, 11:10pm

Sat Oct 19, 11:00pm

Sat Oct 19, 10:10pm

Sat Oct 19, 10:00pm

Sat Oct 19, 9:10pm

Sat Oct 19, 9:00pm

Sat Oct 19, 8:10pm

Sat Oct 19, 8:00pm

Sat Oct 19, 7:10pm

Sat Oct 19, 7:00pm

Sat Oct 19, 6:10pm

Sat Oct 19, 6:00pm

Sat Oct 19, 5:10pm

Sat Oct 19, 5:00pm

Sat Oct 19, 4:10pm

Sat Oct 19, 4:00pm

Sat Oct 19, 3:10pm

Sat Oct 19, 3:01pm

Sat Oct 19, 2:10pm

Sat Oct 19, 2:00pm

Sat Oct 19, 1:10pm

Sat Oct 19, 1:01pm

Sat Oct 19, 12:10pm

Sat Oct 19, 12:00pm

Sat Oct 19, 11:10am

Sat Oct 19, 11:01am

Sat Oct 19, 10:10am

Sat Oct 19, 10:00am

Sat Oct 19, 9:10am

Sat Oct 19, 9:00am

Sat Oct 19, 8:10am

Sat Oct 19, 8:00am

Sat Oct 19, 7:10am

Sat Oct 19, 7:00am

Sat Oct 19, 6:10am

Sat Oct 19, 6:00am

Sat Oct 19, 5:10am

Sat Oct 19, 5:00am

Sat Oct 19, 4:10am

Sat Oct 19, 4:00am

Sat Oct 19, 3:10am

Sat Oct 19, 3:00am

Sat Oct 19, 2:10am

Sat Oct 19, 2:00am

Meta data:

ID: d93fdec6-33e6-4ba4-809f-2385a44c3203
Link: https://api.weather.gov/products/d93fdec6-33e6-4ba4-809f-2385a44c3203